KC8MCA Weather Reports


time (UTC)temp
C
wind
direction
speed
KPH
gust
KPH
rain 1hr
cm
rain 24hr
cm
rain mn
cm
humidity
%
barometer
mb
20260503211826 15 208 9.7 17.7 0.00 0.00 0.00 40 1010.7
20260503211334 15 251 8.0 17.7 0.00 0.00 0.00 40 1010.7
20260503210837 15 284 8.0 25.7 0.00 0.00 0.00 42 1010.7
20260503210325 15 238 14.5 25.7 0.00 0.00 0.00 40 1010.9
20260503205828 15 216 12.9 22.5 0.00 0.00 0.00 42 1010.7
20260503205311 15 244 12.9 22.5 0.00 0.00 0.00 42 1010.8
20260503204813 15 240 9.7 29.0 0.00 0.00 0.00 41 1010.7
20260503204322 15 222 12.9 29.0 0.00 0.00 0.00 40 1010.8
20260503203825 15 232 8.0 14.5 0.00 0.00 0.00 41 1010.7
20260503203328 15 202 8.0 14.5 0.00 0.00 0.00 40 1010.8
20260503202811 15 211 8.0 16.1 0.00 0.00 0.00 40 1010.8
20260503202320 15 208 9.7 20.9 0.00 0.00 0.00 40 1010.9
20260503201823 15 240 9.7 20.9 0.00 0.00 0.00 40 1011.0
20260503201326 15 218 11.3 20.9 0.00 0.00 0.00 40 1010.9
20260503200835 15 221 11.3 20.9 0.00 0.00 0.00 39 1011.0
20260503200316 16 244 8.0 24.1 0.00 0.00 0.00 39 1011.0
20260503195818 16 229 9.7 19.3 0.00 0.00 0.00 39 1011.1
20260503195328 16 210 6.4 17.7 0.00 0.00 0.00 40 1011.3
20260503194810 16 234 11.3 17.7 0.00 0.00 0.00 40 1011.4
20260503194313 15 234 11.3 17.7 0.00 0.00 0.00 39 1011.4
20260503193843 15 246 8.0 17.7 0.00 0.00 0.00 40 1011.4
20260503193325 15 255 9.7 22.5 0.00 0.00 0.00 41 1011.7
20260503192826 15 248 8.0 22.5 0.00 0.00 0.00 40 1011.7
20260503192335 15 249 8.0 19.3 0.00 0.00 0.00 40 1011.8
20260503191818 16 218 11.3 25.7 0.00 0.00 0.00 42 1011.9
20260503191341 15 219 8.0 25.7 0.00 0.00 0.00 40 1011.8
20260503190828 15 227 8.0 17.7 0.00 0.00 0.00 42 1011.8
20260503190311 15 253 11.3 27.4 0.00 0.00 0.00 40 1012.0
20260503185835 15 208 9.7 27.4 0.00 0.00 0.00 41 1012.0
20260503185317 15 209 8.0 17.7 0.00 0.00 0.00 41 1012.2
20260503184819 15 223 8.0 16.1 0.00 0.00 0.00 41 1012.3
20260503184321 15 250 8.0 14.5 0.00 0.00 0.00 42 1012.3
20260503183830 15 284 8.0 17.7 0.00 0.00 0.00 41 1012.4
20260503183315 15 253 8.0 17.7 0.00 0.00 0.00 43 1012.4
20260503182818 15 272 4.8 17.7 0.00 0.00 0.00 44 1012.4
20260503182344 15 250 6.4 16.1 0.00 0.00 0.00 45 1012.3
20260503181846 15 274 8.0 20.9 0.00 0.00 0.00 44 1012.4
20260503181334 14 258 9.7 20.9 0.00 0.00 0.00 48 1012.5
20260503180816 14 260 6.4 16.1 0.00 0.00 0.00 51 1012.7
20260503180346 14 254 9.7 16.1 0.00 0.00 0.00 49 1012.8
20260503175827 14 250 4.8 16.1 0.00 0.00 0.00 50 1012.9
20260503175309 14 251 6.4 16.1 0.00 0.00 0.00 51 1012.9
20260503174836 14 272 6.4 16.1 0.00 0.00 0.00 50 1013.0
20260503174317 14 234 8.0 14.5 0.00 0.00 0.00 49 1013.1
20260503173821 14 256 8.0 20.9 0.00 0.00 0.00 49 1013.1
20260503173323 15 246 9.7 20.9 0.00 0.00 0.00 47 1013.1
20260503172833 15 264 6.4 14.5 0.00 0.00 0.00 48 1013.1
20260503172313 15 247 9.7 14.5 0.00 0.00 0.00 46 1013.2
20260503171816 15 219 6.4 14.5 0.00 0.00 0.00 45 1013.2
20260503171324 15 229 4.8 16.1 0.00 0.00 0.00 47 1013.3
20260503170811 15 262 6.4 20.9 0.00 0.00 0.00 44 1013.3
20260503170337 15 228 4.8 12.9 0.00 0.00 0.00 48 1013.4
20260503150813 12 241 9.7 24.1 0.00 0.00 0.00 48 1014.5
20260503150323 12 242 11.3 24.1 0.00 0.00 0.00 47 1014.5
20260503140312 10 209 8.0 16.1 0.00 0.00 0.00 51 1014.6
20260503131329 8 213 6.4 16.1 0.00 0.00 0.00 58 1015.2
20260503130828 7 225 6.4 16.1 0.00 0.00 0.00 59 1015.2
20260503130327 7 205 8.0 16.1 0.00 0.05 0.00 60 1015.2
20260503110817 2 180 4.8 6.4 0.00 0.08 0.00 81 1015.3
20260503110319 2 175 3.2 8.0 0.00 0.10 0.00 81 1015.2
20260503090310 2 193 3.2 4.8 0.00 0.13 0.00 78 1014.9
20260503081327 3 212 3.2 6.4 0.00 0.13 0.00 76 1015.1
20260503080837 3 204 3.2 6.4 0.00 0.13 0.00 77 1015.1
20260503080318 3 205 3.2 6.4 0.00 0.13 0.00 77 1015.2
20260503072829 3 199 3.2 6.4 0.00 0.13 0.00 77 1015.1
20260503072312 3 201 3.2 6.4 0.00 0.13 0.00 77 1015.1
20260503071815 3 207 3.2 6.4 0.00 0.13 0.00 78 1015.2
20260503071323 3 206 3.2 6.4 0.00 0.13 0.00 78 1015.1
20260503070846 3 205 3.2 4.8 0.00 0.13 0.00 78 1015.1
20260503070334 3 205 3.2 4.8 0.00 0.15 0.00 79 1015.1
20260503060313 3 183 4.8 6.4 0.00 0.36 0.00 82 1015.2
20260503054846 3 172 3.2 6.4 0.00 0.36 0.00 81 1015.3
20260503054324 3 187 4.8 6.4 0.00 0.36 0.00 81 1015.4
20260503053831 3 180 3.2 6.4 0.00 0.36 0.00 80 1015.4
20260503053312 3 178 3.2 6.4 0.00 0.36 0.00 80 1015.4
20260503052813 3 179 3.2 6.4 0.00 0.36 0.00 80 1015.4
20260503052340 3 178 1.6 6.4 0.00 0.36 0.00 79 1015.3
20260503051819 3 178 3.2 4.8 0.00 0.36 0.00 79 1015.4
20260503051319 4 178 3.2 4.8 0.00 0.36 0.00 79 1015.4
20260503050824 4 178 3.2 4.8 0.00 0.36 0.00 78 1015.5
20260503050325 4 178 1.6 6.4 0.00 0.36 0.00 78 1015.5
20260503045852 4 179 3.2 6.4 0.00 0.36 0.00 78 1015.5
20260503045311 4 181 3.2 6.4 0.00 0.36 0.00 78 1015.5
20260503044811 4 184 3.2 6.4 0.00 0.36 0.00 77 1015.6
20260503044318 4 186 1.6 6.4 0.00 0.36 0.00 77 1015.6
20260503043841 4 184 3.2 4.8 0.00 0.36 0.00 77 1015.6
20260503043328 4 186 3.2 4.8 0.00 0.36 0.00 76 1015.5
20260503042807 5 186 1.6 4.8 0.00 0.36 0.00 76 1015.5
20260503042308 5 189 3.2 4.8 0.00 0.36 0.00 76 1015.6
20260503041810 5 194 3.2 6.4 0.00 0.36 0.00 75 1015.6
20260503041337 5 195 3.2 6.4 0.00 0.36 0.00 75 1015.6
20260503040815 5 196 3.2 6.4 0.00 0.36 0.00 75 1015.6
20260503040321 5 199 3.2 6.4 0.00 0.38 0.36 74 1015.7
20260503035849 5 203 3.2 6.4 0.00 0.38 0.36 74 1015.7
20260503035311 5 210 3.2 8.0 0.00 0.38 0.36 74 1015.7
20260503034812 5 217 4.8 8.0 0.00 0.38 0.36 73 1015.8
20260503034342 5 203 4.8 8.0 0.00 0.38 0.36 73 1015.9
20260503033823 5 205 4.8 6.4 0.00 0.38 0.36 72 1015.9
20260503033325 5 214 4.8 8.0 0.00 0.38 0.36 72 1015.9
20260503032831 6 205 4.8 8.0 0.00 0.38 0.36 71 1015.9
20260503032314 6 199 4.8 8.0 0.00 0.38 0.36 71 1016.0
20260503031812 6 201 4.8 11.3 0.00 0.38 0.36 70 1015.9
20260503031315 6 196 4.8 11.3 0.00 0.38 0.36 70 1015.9
20260503030824 6 209 4.8 8.0 0.00 0.38 0.36 69 1015.9
20260503030307 6 207 3.2 12.9 0.00 0.84 0.36 69 1016.0
20260503025810 6 209 3.2 6.4 0.00 0.84 0.36 68 1016.0
20260503025319 6 210 4.8 6.4 0.00 0.84 0.36 68 1015.9
20260503024842 6 213 3.2 6.4 0.00 0.84 0.36 67 1015.9
20260503024328 6 213 4.8 6.4 0.00 0.84 0.36 66 1016.0
20260503023810 6 211 3.2 6.4 0.00 0.84 0.36 65 1016.1
20260503023310 6 211 1.6 8.0 0.00 0.84 0.36 65 1016.0
20260503022813 6 209 4.8 8.0 0.00 0.84 0.36 65 1016.0
20260503022343 6 208 3.2 6.4 0.00 0.84 0.36 65 1016.1
20260503021825 6 211 3.2 6.4 0.00 0.84 0.36 65 1016.1
20260503021308 6 211 3.2 6.4 0.00 0.84 0.36 63 1016.1
20260503020816 6 210 3.2 6.4 0.00 0.84 0.36 62 1016.2
20260503020318 7 210 3.2 6.4 0.00 0.94 0.36 60 1016.1
20260503015826 7 215 1.6 4.8 0.00 0.94 0.36 58 1016.0
20260503015308 7 215 3.2 4.8 0.00 0.94 0.36 56 1015.9
20260503014811 7 215 1.6 6.4 0.00 0.94 0.36 56 1015.9
20260503014313 7 215 0.0 6.4 0.00 0.94 0.36 55 1016.0
20260503013822 7 280 0.0 3.2 0.00 0.94 0.36 55 1016.0
20260503013322 7 281 1.6 4.8 0.00 0.94 0.36 55 1016.0
20260503012824 7 281 1.6 4.8 0.00 0.94 0.36 56 1015.9
20260503012332 7 261 1.6 4.8 0.00 0.94 0.36 55 1015.9
20260503011815 7 258 3.2 4.8 0.00 0.94 0.36 56 1015.9
20260503011318 7 267 1.6 8.0 0.00 0.94 0.36 56 1016.0
20260503010829 7 257 1.6 8.0 0.00 0.94 0.36 56 1015.9
20260503010308 7 273 0.0 4.8 0.00 0.94 0.36 56 1015.9
20260503005811 7 277 1.6 3.2 0.00 0.94 0.36 55 1015.8
20260503005320 7 276 0.0 4.8 0.00 0.94 0.36 56 1015.8
20260503004822 7 275 1.6 4.8 0.00 0.94 0.36 55 1015.7
20260503004323 7 298 1.6 6.4 0.00 0.94 0.36 57 1015.7
20260503003831 7 297 1.6 6.4 0.00 0.94 0.36 57 1015.7
20260503003312 7 280 0.0 6.4 0.00 0.94 0.36 57 1015.8
20260503002816 7 288 1.6 4.8 0.00 0.94 0.36 59 1015.7
20260503002318 7 288 0.0 6.4 0.00 0.94 0.36 60 1015.8
20260503001827 7 287 1.6 6.4 0.00 0.94 0.36 58 1015.9
20260503001309 7 289 1.6 4.8 0.00 0.94 0.36 60 1015.8
20260503000811 7 281 1.6 4.8 0.00 0.94 0.36 60 1015.7
20260503000341 7 280 0.0 3.2 0.00 0.94 0.36 60 1015.9
20260502235823 7 281 0.0 4.8 0.00 0.94 0.36 59 1015.7
20260502235332 7 283 0.0 6.4 0.00 0.94 0.36 60 1015.8
20260502234810 7 279 3.2 6.4 0.00 0.94 0.36 61 1015.8
20260502234313 6 290 1.6 6.4 0.00 0.94 0.36 59 1015.7
20260502233815 6 276 1.6 8.0 0.00 0.94 0.36 59 1015.7
20260502233344 6 249 3.2 8.0 0.00 0.94 0.36 58 1015.7
20260502232824 7 318 1.6 6.4 0.00 0.94 0.36 61 1015.7
20260502232306 7 296 1.6 8.0 0.00 0.94 0.36 61 1015.7
20260502231815 7 297 1.6 8.0 0.00 0.94 0.36 63 1015.8
20260502231318 6 300 0.0 1.6 0.00 0.94 0.36 62 1015.8
20260502230828 6 300 0.0 1.6 0.00 0.94 0.36 62 1015.9
20260502230310 6 300 0.0 4.8 0.00 0.94 0.36 60 1015.9
20260502225811 6 300 1.6 4.8 0.00 0.94 0.36 61 1015.9
20260502225314 6 318 1.6 9.7 0.00 0.94 0.36 61 1015.9
20260502224822 6 253 1.6 6.4 0.00 0.94 0.36 61 1015.9
20260502224324 6 256 1.6 6.4 0.00 0.94 0.36 63 1016.0
20260502223807 6 244 3.2 6.4 0.00 0.94 0.36 62 1016.0
20260502223310 6 319 1.6 6.4 0.00 0.94 0.36 63 1016.0
20260502222819 6 301 0.0 4.8 0.00 0.94 0.36 64 1016.0
20260502222322 6 316 1.6 6.4 0.00 0.94 0.36 63 1016.0
20260502221824 6 319 1.6 8.0 0.00 0.94 0.36 63 1016.1
20260502221306 6 329 1.6 4.8 0.00 0.94 0.36 64 1016.1
20260502220815 6 331 1.6 8.0 0.00 0.94 0.36 65 1016.1
20260502220317 6 331 3.2 8.0 0.00 0.94 0.36 63 1016.1
20260502215825 6 281 1.6 6.4 0.00 0.94 0.36 65 1016.1
20260502215329 6 240 3.2 8.0 0.00 0.94 0.36 64 1016.1
20260502214811 6 338 4.8 8.0 0.00 0.94 0.36 63 1016.1
20260502214320 6 240 1.6 8.0 0.00 0.94 0.36 64 1016.0
20260502213806 6 283 1.6 8.0 0.00 0.94 0.36 65 1016.0
20260502213308 6 324 1.6 8.0 0.00 0.94 0.36 64 1016.0
20260502212816 6 308 3.2 8.0 0.00 0.94 0.36 64 1016.1
20260502212336 6 314 3.2 11.3 0.00 0.94 0.36 64 1016.0